St. David's, Bermuda

6:32 AM ADT on June 26, 2017 (GMT -0300)
Bermuda International

Weather History for TXKF - September, 2011

Change the Weather History Date:

Thursday, September 15, 2011

  Actual Average Record
Temperature  
Mean Temperature 80 °F -  
Max Temperature 83 °F 79 °F 86 °F (1999)
Min Temperature 77 °F 72 °F 73 °F (2000)
Cooling Degree Days 15    
Growing Degree Days 30 (Base 50)    
Moisture  
Dew Point 75 °F    
Average Humidity 82    
Maximum Humidity 94    
Minimum Humidity 72    
Precipitation  
Precipitation 0.20 in - - ()
Sea Level Pressure  
Sea Level Pressure 29.96 in    
Wind  
Wind Speed 24 mph ()    
Max Wind Speed 39 mph    
Max Gust Speed 50 mph    
Visibility 5.8 miles    
Events Rain , Thunderstorm    
Averages and records for this station are not official NWS values.
T = Trace of Precipitation, MM = Missing Value Source: Averaged Metar Reports

Daily Weather History Graph

Daily Weather History Graph

Search for Another Location

Airport or City:

Trip Planner

Search our weather history database for the weather conditions in past years. The results will help you decide how hot, cold, wet, or windy it might be!

Date:

Astronomy

Sep. 15, 2011 Rise Set
Actual Time 7:02 AM ADT 7:25 PM ADT
Civil Twilight 6:37 AM ADT 7:49 PM ADT
Nautical Twilight 6:08 AM ADT 8:18 PM ADT
Astronomical Twilight 5:39 AM ADT 8:47 PM ADT
Moon 8:55 PM ADT (9/15) 9:51 AM ADT (9/15)
Length of Visible Light 13h 12m
Length of Day
12h 22m
Waning Gibbous, 91% of the Moon is Illuminated
Sep 15
Waning Gibbous
Sep 20
Last Quarter
Sep 27
New
Oct 4
First Quarter
Oct 11
Full

Hourly Weather History & Observations

Time (ADT) Temp. Heat Index Dew Point Humidity Pressure Visibility Wind Dir Wind Speed Gust Speed Precip Events Conditions
12:00 AM 79 °F - 73 °F 78% 30.06 in 9 mi ESE 17.3 mph - - Rain Light Rain Showers
12:55 AM 80.6 °F 85.4 °F 73.4 °F 79% 30.04 in 6.2 mi SE 15.0 mph - N/A   Mostly Cloudy
1:55 AM 78.8 °F - 75.2 °F 89% 30.01 in 6.2 mi SE 16.1 mph 35.7 mph N/A   Overcast
2:55 AM 80.6 °F 86.2 °F 75.2 °F 84% 30.01 in 6.2 mi SSE 20.7 mph - N/A Rain Light Rain Showers
3:00 AM 80 °F - 75 °F 79% 30.02 in 9 mi SSE 23.0 mph - - Rain Light Rain Showers
3:55 AM 80.6 °F 85.4 °F 73.4 °F 79% 29.98 in 6.2 mi South 20.7 mph - N/A   Mostly Cloudy
4:55 AM 80.6 °F 86.2 °F 75.2 °F 84% 29.98 in 6.2 mi South 24.2 mph - N/A   Mostly Cloudy
5:55 AM 80.6 °F 86.2 °F 75.2 °F 84% 29.98 in 6.2 mi SSE 23.0 mph - N/A   Mostly Cloudy
6:00 AM 81 °F - 74 °F 75% 29.99 in 9 mi SSE 23.0 mph - -   Partly Cloudy
6:02 AM 80.6 °F 86.2 °F 75.2 °F 84% 29.98 in 6.2 mi SSE 25.3 mph 42.6 mph N/A Rain Rain Showers
6:07 AM 78.8 °F - 73.4 °F 83% 29.98 in 6.2 mi SSE 26.5 mph 42.6 mph N/A   Mostly Cloudy
6:55 AM 80.6 °F 86.2 °F 75.2 °F 84% 29.98 in 6.2 mi SSE 26.5 mph - N/A   Mostly Cloudy
7:55 AM 82.4 °F 89.5 °F 75.2 °F 79% 29.98 in 6.2 mi SSE 31.1 mph - N/A   Overcast
8:55 AM 82.4 °F 89.5 °F 75.2 °F 79% 29.98 in 5.6 mi SSE 32.2 mph - N/A Rain Light Rain Showers
9:00 AM 82 °F - 74 °F 72% 29.98 in 6 mi SSE 32.2 mph - - Rain Light Rain Showers
9:03 AM 82.4 °F 89.5 °F 75.2 °F 79% 29.95 in 5.0 mi SSE 32.2 mph - N/A Rain Light Rain Showers
9:13 AM 82.4 °F 88.2 °F 73.4 °F 74% 29.98 in 5.6 mi SSE 32.2 mph - N/A   Overcast
9:27 AM 82.4 °F 89.5 °F 75.2 °F 79% 29.98 in 5.0 mi SSE 34.5 mph - N/A Rain , Thunderstorm Light Thunderstorms and Rain
9:55 AM 82.4 °F 89.5 °F 75.2 °F 79% 29.95 in 5.6 mi SSE 32.2 mph - N/A   Overcast
10:55 AM 82.4 °F 89.5 °F 75.2 °F 79% 29.95 in 6.2 mi SSE 35.7 mph - N/A   Overcast
11:55 AM 82.4 °F 89.5 °F 75.2 °F 79% 29.95 in 1.0 mi SSE 36.8 mph - N/A Rain Rain Showers
12:00 PM 83 °F - 76 °F 74% 29.95 in 9 mi SSE 36.8 mph - - Rain Heavy Rain Showers
12:01 PM 80.6 °F 86.2 °F 75.2 °F 84% 29.95 in 3.7 mi South 33.4 mph 48.3 mph N/A Rain Light Rain Showers
12:31 PM 80.6 °F 86.2 °F 75.2 °F 84% 29.95 in - South 39.1 mph - N/A Rain Rain Showers
12:38 PM 78.8 °F - 75.2 °F 89% 29.95 in 1.5 mi South 39.1 mph - N/A Rain Rain Showers
12:55 PM 78.8 °F - 77.0 °F 94% 29.92 in - South 31.1 mph - N/A Rain Light Rain Showers
1:00 PM 80.6 °F 86.2 °F 75.2 °F 84% 29.92 in - South 34.5 mph 46.0 mph N/A Rain , Thunderstorm Thunderstorms and Rain
1:28 PM 78.8 °F - 75.2 °F 89% 29.92 in 1.0 mi South 33.4 mph 49.5 mph N/A Rain , Thunderstorm Thunderstorms and Rain
1:41 PM 77.0 °F - 75.2 °F 94% 29.92 in - South 33.4 mph - N/A Rain , Thunderstorm Light Thunderstorms and Rain
1:55 PM 77.0 °F - 75.2 °F 94% 29.92 in - South 32.2 mph - N/A Rain , Thunderstorm Light Thunderstorms and Rain
2:16 PM 78.8 °F - 75.2 °F 89% 29.92 in - South 35.7 mph - N/A Rain , Thunderstorm Light Thunderstorms and Rain
2:41 PM 78.8 °F - 73.4 °F 83% 29.92 in 5.0 mi South 34.5 mph 47.2 mph N/A Rain Light Rain Showers
2:55 PM 78.8 °F - 73.4 °F 83% 29.92 in 5.0 mi South 36.8 mph - N/A   Haze
3:00 PM 79 °F - 73 °F 78% 29.92 in 5 mi South 36.8 mph - - Thunderstorm Light Thunderstorm
3:55 PM 80.6 °F 86.2 °F 75.2 °F 84% 29.92 in 5.0 mi SSW 35.7 mph - N/A   Haze
4:12 PM 80.6 °F 86.2 °F 75.2 °F 84% 29.92 in 5.0 mi SSW 34.5 mph - N/A Rain Light Rain Showers
4:55 PM 80.6 °F 86.2 °F 75.2 °F 84% 29.92 in 5.0 mi SSW 32.2 mph - N/A   Haze
5:10 PM 80.6 °F 86.2 °F 75.2 °F 84% 29.92 in 5.0 mi SSW 31.1 mph - N/A Rain Light Rain Showers
5:44 PM 80.6 °F 86.2 °F 75.2 °F 84% 29.92 in 5.0 mi SSW 27.6 mph - N/A   Haze
5:55 PM 80.6 °F 86.2 °F 75.2 °F 84% 29.92 in 5.6 mi SW 26.5 mph - N/A Rain Light Rain Showers
6:00 PM 80 °F - 75 °F 81% 29.95 in 6 mi SW 26.5 mph - - Rain Light Rain Showers
6:55 PM 80.6 °F 85.4 °F 73.4 °F 79% 29.98 in 6.2 mi SW 26.5 mph - N/A   Mostly Cloudy
7:55 PM 80.6 °F 85.4 °F 73.4 °F 79% 29.98 in 6.2 mi SW 24.2 mph - N/A   Mostly Cloudy
8:55 PM 80.6 °F 85.4 °F 73.4 °F 79% 30.01 in 6.2 mi SW 17.3 mph - N/A   Mostly Cloudy
9:00 PM 80 °F - 74 °F 76%  in 9 mi SW 15.0 mph - -  
9:55 PM 80.6 °F 85.4 °F 73.4 °F 79% 30.04 in 6.2 mi SW 17.3 mph - N/A   Mostly Cloudy
10:55 PM 78.8 °F - 75.2 °F 89% 30.01 in 6.2 mi SW 16.1 mph - N/A   Mostly Cloudy
11:55 PM 78.8 °F - 73.4 °F 83% 30.01 in 6.2 mi SW 13.8 mph - N/A   Mostly Cloudy